Location: Aldenham
(51.6667°N, 0.3500°W)
Time: 17:29:35
(UTC+00:00)

Vanguard 2 Rocket - Pass Details

Date: 18 February 2026
Orbit: 553 x 3286 km, 32.9° (Epoch: 11 March)

Event Time Altitude Azimuth Distance (km) Brightness Sun altitude
Rises 11:19:09 0° 212° (SSW) 7,248 12.1 25.6°
Reaches altitude 10° 11:25:30 10° 201° (SSW) 6,191 12.1 25.9°
Maximum altitude 11:39:06 25° 156° (SSE) 4,533 12.6 26.3°
Drops below altitude 10° 11:49:53 10° 109° (ESE) 4,866 11.0 26.6°
Sets 11:54:00 0° 97° (E) 5,470 11.0 26.6°
